Satellite-Ground Cal/Val Region Overpasses Predictions

Prediction of Satellite NPP Overpassing Cal/Val Region: PacNW

Region Location: (Latitude: 10.00, Longitude: 139.50) to (Latitude: 22.70, Longitude: 165.60).

Table of predicted overpasses for the next 14.0 days since TLE Epoch: 12/27/2013
Interval Starting Time Starting Location Ending Time Ending Location
1 12/28/2013 02:48:02 ( 10.04, 158.23) 12/28/2013 02:51:37 ( 22.65, 155.22)
2 12/28/2013 15:19:56 ( 22.67, 155.50) 12/28/2013 15:23:31 ( 10.05, 152.48)
3 12/29/2013 02:29:02 ( 10.04, 162.99) 12/29/2013 02:32:37 ( 22.66, 159.98)
4 12/29/2013 15:00:56 ( 22.66, 160.25) 12/29/2013 15:04:31 ( 10.04, 157.24)
5 12/30/2013 02:12:37 ( 19.20, 165.59) 12/30/2013 02:13:36 ( 22.66, 164.73)
6 12/30/2013 03:51:31 ( 10.05, 142.37) 12/30/2013 03:54:56 ( 22.08, 139.51)
7 12/30/2013 14:41:55 ( 22.66, 165.01) 12/30/2013 14:45:30 ( 10.03, 161.99)
8 12/30/2013 16:23:25 ( 22.65, 139.63) 12/30/2013 16:23:34 ( 22.13, 139.50)
9 12/31/2013 03:32:31 ( 10.05, 147.13) 12/31/2013 03:36:06 ( 22.67, 144.11)
10 12/31/2013 16:04:25 ( 22.65, 144.39) 12/31/2013 16:08:00 ( 10.03, 141.38)
11 01/01/2014 03:13:30 ( 10.06, 151.88) 01/01/2014 03:17:05 ( 22.68, 148.87)
12 01/01/2014 15:45:23 ( 22.70, 149.16) 01/01/2014 15:48:59 ( 10.02, 146.13)
13 01/02/2014 02:54:29 ( 10.01, 156.65) 01/02/2014 02:58:05 ( 22.68, 153.63)
14 01/02/2014 15:26:23 ( 22.69, 153.91) 01/02/2014 15:29:59 ( 10.01, 150.89)
15 01/03/2014 02:35:28 ( 10.01, 161.41) 01/03/2014 02:39:04 ( 22.69, 158.38)
16 01/03/2014 15:07:22 ( 22.68, 158.67) 01/03/2014 15:10:58 ( 10.00, 155.64)
17 01/04/2014 02:17:10 ( 12.49, 165.59) 01/04/2014 02:20:04 ( 22.70, 163.14)
18 01/04/2014 03:57:58 ( 10.02, 140.79) 01/04/2014 03:59:32 ( 15.54, 139.50)
19 01/04/2014 14:48:22 ( 22.67, 163.42) 01/04/2014 14:51:57 ( 10.05, 160.41)
20 01/05/2014 03:38:58 ( 10.03, 145.54) 01/05/2014 03:42:33 ( 22.65, 142.53)
21 01/05/2014 14:32:24 ( 11.92, 165.60) 01/05/2014 14:32:56 ( 10.04, 165.17)
22 01/05/2014 16:10:51 ( 22.66, 142.80) 01/05/2014 16:14:26 ( 10.04, 139.79)
23
